| time (UTC) | temp F | wind direction | speed MPH | gust MPH | rain 1hr in | rain 24hr in | rain mn in | humidity % | barometer mb |
| 20260506084504 | 82 | 157 | 1.0 | 4.0 | 0.00 | 0.00 | 0.00 | 29 | 1016.0 |
| 20260506084004 | 81 | 226 | 2.0 | 7.0 | 0.00 | 0.00 | 0.00 | 28 | 1016.1 |
| 20260506083503 | 82 | 218 | 2.0 | 7.0 | 0.00 | 0.00 | 0.00 | 27 | 1016.1 |
| 20260506083004 | 82 | 178 | 1.0 | 6.0 | 0.00 | 0.00 | 0.00 | 28 | 1016.1 |
| 20260506082504 | 82 | 210 | 1.0 | 6.0 | 0.00 | 0.00 | 0.00 | 29 | 1016.0 |
| 20260506082004 | 81 | 282 | 1.0 | 9.0 | 0.00 | 0.00 | 0.00 | 31 | 1016.3 |
| 20260506081504 | 81 | 277 | 1.0 | 9.0 | 0.00 | 0.00 | 0.00 | 31 | 1016.3 |
| 20260506081003 | 80 | 232 | 2.0 | 5.0 | 0.00 | 0.00 | 0.00 | 31 | 1016.1 |
| 20260506080504 | 79 | 251 | 2.0 | 5.0 | 0.00 | 0.00 | 0.00 | 32 | 1016.2 |
| 20260506073504 | 77 | 316 | 1.0 | 4.0 | 0.00 | 0.00 | 0.00 | 41 | 1016.0 |
| 20260506072503 | 76 | 269 | 1.0 | 5.0 | 0.00 | 0.00 | 0.00 | 41 | 1016.0 |
| 20260506072004 | 76 | 272 | 1.0 | 4.0 | 0.00 | 0.00 | 0.00 | 44 | 1015.9 |
| 20260506071504 | 75 | 274 | 1.0 | 4.0 | 0.00 | 0.00 | 0.00 | 46 | 1016.1 |
| 20260506071003 | 74 | 237 | 1.0 | 4.0 | 0.00 | 0.00 | 0.00 | 46 | 1016.1 |
| 20260506070504 | 73 | 209 | 2.0 | 7.0 | 0.00 | 0.00 | 0.00 | 47 | 1015.9 |
| 20260506062004 | 68 | 207 | 2.0 | 4.0 | 0.00 | 0.00 | 0.00 | 58 | 1016.2 |
| 20260506061504 | 68 | 225 | 1.0 | 4.0 | 0.00 | 0.00 | 0.00 | 59 | 1016.3 |
| 20260506061003 | 67 | 217 | 2.0 | 4.0 | 0.00 | 0.00 | 0.00 | 60 | 1016.2 |
| 20260506060504 | 66 | 216 | 2.0 | 4.0 | 0.00 | 0.00 | 0.00 | 61 | 1016.0 |
| 20260506051004 | 63 | 239 | 1.0 | 4.0 | 0.00 | 0.00 | 0.00 | 67 | 1016.1 |
| 20260506050503 | 62 | 226 | 1.0 | 5.0 | 0.00 | 0.00 | 0.00 | 67 | 1016.1 |
| 20260506044504 | 60 | 221 | 0.0 | 4.0 | 0.00 | 0.00 | 0.00 | 70 | 1015.8 |
| 20260506043503 | 59 | 231 | 1.0 | 4.0 | 0.00 | 0.00 | 0.00 | 71 | 1015.6 |
| 20260506043004 | 58 | 231 | 1.0 | 4.0 | 0.00 | 0.00 | 0.00 | 71 | 1015.7 |
| 20260506042504 | 58 | 230 | 1.0 | 4.0 | 0.00 | 0.00 | 0.00 | 71 | 1015.7 |
| 20260506042004 | 57 | 250 | 0.0 | 4.0 | 0.00 | 0.00 | 0.00 | 72 | 1016.0 |
| 20260506041504 | 57 | 249 | 0.0 | 4.0 | 0.00 | 0.00 | 0.00 | 72 | 1015.8 |
| 20260506041004 | 56 | 231 | 1.0 | 4.0 | 0.00 | 0.00 | 0.00 | 71 | 1015.7 |
| 20260506040503 | 56 | 233 | 1.0 | 4.0 | 0.00 | 0.00 | 0.00 | 71 | 1015.6 |
| 20260506040004 | 56 | 243 | 0.0 | 4.0 | 0.00 | 0.00 | 0.00 | 72 | 1015.6 |
| 20260506035504 | 56 | 266 | 0.0 | 4.0 | 0.00 | 0.00 | 0.00 | 72 | 1015.6 |
| 20260506035003 | 56 | 249 | 1.0 | 4.0 | 0.00 | 0.00 | 0.00 | 72 | 1015.6 |
| 20260506034505 | 55 | 237 | 1.0 | 5.0 | 0.00 | 0.00 | 0.00 | 73 | 1015.4 |
| 20260506034004 | 55 | 263 | 1.0 | 5.0 | 0.00 | 0.00 | 0.00 | 73 | 1015.5 |
| 20260506033503 | 55 | 271 | 1.0 | 4.0 | 0.00 | 0.00 | 0.00 | 73 | 1015.3 |
| 20260506033005 | 55 | 273 | 0.0 | 4.0 | 0.00 | 0.00 | 0.00 | 73 | 1015.4 |
| 20260506032503 | 55 | 250 | 1.0 | 4.0 | 0.00 | 0.00 | 0.00 | 74 | 1015.3 |
| 20260506031504 | 54 | 252 | 0.0 | 4.0 | 0.00 | 0.00 | 0.00 | 75 | 1015.2 |
| 20260506031003 | 54 | 247 | 0.0 | 4.0 | 0.00 | 0.00 | 0.00 | 75 | 1015.2 |
| 20260506030004 | 54 | 265 | 1.0 | 4.0 | 0.00 | 0.00 | 0.00 | 76 | 1015.3 |
| 20260506025504 | 54 | 285 | 1.0 | 4.0 | 0.00 | 0.00 | 0.00 | 76 | 1015.1 |
| 20260506025003 | 53 | 289 | 1.0 | 3.0 | 0.00 | 0.00 | 0.00 | 76 | 1015.2 |
| 20260506024504 | 53 | 279 | 0.0 | 4.0 | 0.00 | 0.00 | 0.00 | 76 | 1015.1 |
| 20260506023504 | 53 | 234 | 0.0 | 3.0 | 0.00 | 0.00 | 0.00 | 77 | 1015.2 |
| 20260506023004 | 53 | 236 | 1.0 | 3.0 | 0.00 | 0.00 | 0.00 | 77 | 1015.3 |
| 20260506022504 | 53 | 223 | 1.0 | 4.0 | 0.00 | 0.00 | 0.00 | 77 | 1015.3 |
| 20260506022004 | 52 | 223 | 1.0 | 4.0 | 0.00 | 0.00 | 0.00 | 77 | 1015.2 |
| 20260506021003 | 52 | 219 | 0.0 | 4.0 | 0.00 | 0.00 | 0.00 | 77 | 1015.4 |
| 20260506020503 | 52 | 194 | 0.0 | 2.0 | 0.00 | 0.00 | 0.00 | 77 | 1015.2 |
| 20260506020004 | 52 | 181 | 0.0 | 1.0 | 0.00 | 0.00 | 0.00 | 77 | 1015.5 |
| 20260506015504 | 52 | 191 | 0.0 | 2.0 | 0.00 | 0.00 | 0.00 | 77 | 1015.4 |
| 20260506015005 | 52 | 200 | 0.0 | 3.0 | 0.00 | 0.00 | 0.00 | 77 | 1015.3 |
| 20260506014004 | 51 | 200 | 1.0 | 4.0 | 0.00 | 0.00 | 0.00 | 77 | 1015.3 |
| 20260506013504 | 51 | 225 | 0.0 | 3.0 | 0.00 | 0.00 | 0.00 | 76 | 1015.5 |
| 20260506013004 | 51 | 0 | 0.0 | 0.0 | 0.00 | 0.00 | 0.00 | 76 | 1015.3 |
| 20260506012504 | 51 | 0 | 0.0 | 0.0 | 0.00 | 0.00 | 0.00 | 75 | 1015.4 |
| 20260506012003 | 51 | 0 | 0.0 | 0.0 | 0.00 | 0.00 | 0.00 | 75 | 1015.3 |
| 20260506011004 | 52 | 0 | 0.0 | 0.0 | 0.00 | 0.00 | 0.00 | 75 | 1015.4 |
| 20260506010503 | 52 | 93 | 0.0 | 3.0 | 0.00 | 0.00 | 0.00 | 75 | 1015.4 |
| 20260506010004 | 52 | 59 | 0.0 | 3.0 | 0.00 | 0.00 | 0.00 | 75 | 1015.4 |
| 20260506005503 | 52 | 64 | 0.0 | 3.0 | 0.00 | 0.00 | 0.00 | 75 | 1015.5 |
| 20260506005004 | 52 | 109 | 0.0 | 2.0 | 0.00 | 0.00 | 0.00 | 74 | 1015.5 |
| 20260506004004 | 52 | 162 | 0.0 | 3.0 | 0.00 | 0.00 | 0.00 | 74 | 1015.4 |
| 20260506003504 | 53 | 177 | 0.0 | 3.0 | 0.00 | 0.00 | 0.00 | 75 | 1015.3 |
| 20260506003004 | 53 | 185 | 0.0 | 3.0 | 0.00 | 0.00 | 0.00 | 75 | 1015.3 |
| 20260506002504 | 53 | 181 | 0.0 | 4.0 | 0.00 | 0.00 | 0.00 | 76 | 1015.5 |
| 20260506002004 | 52 | 169 | 0.0 | 4.0 | 0.00 | 0.00 | 0.00 | 76 | 1015.4 |
| 20260506001504 | 52 | 83 | 0.0 | 1.0 | 0.00 | 0.00 | 0.00 | 75 | 1015.5 |
| 20260506001004 | 52 | 0 | 0.0 | 0.0 | 0.00 | 0.00 | 0.00 | 75 | 1015.3 |
| 20260506000504 | 52 | 0 | 0.0 | 0.0 | 0.00 | 0.00 | 0.00 | 75 | 1015.5 |
| 20260506000004 | 53 | 341 | 0.0 | 3.0 | 0.00 | 0.00 | 0.00 | 74 | 1015.3 |
| 20260505235503 | 53 | 340 | 0.0 | 3.0 | 0.00 | 0.00 | 0.00 | 74 | 1015.4 |
| 20260505235004 | 53 | 278 | 0.0 | 3.0 | 0.00 | 0.00 | 0.00 | 74 | 1015.3 |
| 20260505234504 | 53 | 131 | 0.0 | 3.0 | 0.00 | 0.00 | 0.00 | 74 | 1015.5 |
| 20260505233503 | 53 | 107 | 0.0 | 3.0 | 0.00 | 0.00 | 0.00 | 73 | 1015.4 |
| 20260505233005 | 53 | 104 | 0.0 | 3.0 | 0.00 | 0.00 | 0.00 | 73 | 1015.6 |
| 20260505232504 | 53 | 93 | 1.0 | 3.0 | 0.00 | 0.00 | 0.00 | 73 | 1015.5 |
| 20260505232003 | 53 | 104 | 1.0 | 3.0 | 0.00 | 0.00 | 0.00 | 72 | 1015.4 |
| 20260505231504 | 53 | 132 | 0.0 | 3.0 | 0.00 | 0.00 | 0.00 | 72 | 1015.6 |
| 20260505230004 | 54 | 55 | 0.0 | 2.0 | 0.00 | 0.00 | 0.00 | 71 | 1015.6 |
| 20260505225504 | 54 | 219 | 0.0 | 2.0 | 0.00 | 0.00 | 0.00 | 71 | 1015.8 |
| 20260505224504 | 54 | 218 | 1.0 | 4.0 | 0.00 | 0.00 | 0.00 | 71 | 1015.5 |
| 20260505224003 | 54 | 237 | 1.0 | 4.0 | 0.00 | 0.00 | 0.00 | 71 | 1015.6 |
| 20260505223504 | 54 | 245 | 0.0 | 3.0 | 0.00 | 0.00 | 0.00 | 70 | 1015.7 |
| 20260505223004 | 54 | 217 | 0.0 | 1.0 | 0.00 | 0.00 | 0.00 | 69 | 1015.6 |
| 20260505222504 | 54 | 135 | 0.0 | 1.0 | 0.00 | 0.00 | 0.00 | 69 | 1015.8 |
| 20260505221504 | 55 | 217 | 0.0 | 3.0 | 0.00 | 0.00 | 0.00 | 68 | 1015.8 |
| 20260505221004 | 55 | 222 | 1.0 | 4.0 | 0.00 | 0.00 | 0.00 | 68 | 1015.9 |
| 20260505220004 | 55 | 90 | 0.0 | 1.0 | 0.00 | 0.00 | 0.00 | 66 | 1015.9 |
| 20260505215004 | 55 | 72 | 0.0 | 2.0 | 0.00 | 0.00 | 0.00 | 64 | 1015.9 |
| 20260505214504 | 56 | 50 | 0.0 | 2.0 | 0.00 | 0.00 | 0.00 | 64 | 1015.8 |
| 20260505214003 | 56 | 42 | 1.0 | 4.0 | 0.00 | 0.00 | 0.00 | 63 | 1015.8 |
| 20260505213503 | 57 | 44 | 0.0 | 4.0 | 0.00 | 0.00 | 0.00 | 63 | 1015.9 |
| 20260505213004 | 58 | 235 | 1.0 | 4.0 | 0.00 | 0.00 | 0.00 | 64 | 1015.8 |
| 20260505212503 | 58 | 220 | 2.0 | 4.0 | 0.00 | 0.00 | 0.00 | 64 | 1015.6 |
| 20260505212004 | 58 | 216 | 1.0 | 4.0 | 0.00 | 0.00 | 0.00 | 63 | 1015.6 |
| 20260505211504 | 58 | 229 | 1.0 | 4.0 | 0.00 | 0.00 | 0.00 | 63 | 1015.6 |
| 20260505211003 | 58 | 222 | 1.0 | 4.0 | 0.00 | 0.00 | 0.00 | 63 | 1015.8 |
| 20260505210504 | 58 | 240 | 1.0 | 4.0 | 0.00 | 0.00 | 0.00 | 63 | 1015.8 |
| 20260505210004 | 58 | 269 | 0.0 | 4.0 | 0.00 | 0.00 | 0.00 | 63 | 1016.0 |
| 20260505205504 | 58 | 275 | 1.0 | 5.0 | 0.00 | 0.00 | 0.00 | 63 | 1016.0 |
| 20260505205004 | 58 | 270 | 2.0 | 7.0 | 0.00 | 0.00 | 0.00 | 63 | 1015.6 |
| 20260505204504 | 58 | 273 | 1.0 | 7.0 | 0.00 | 0.00 | 0.00 | 63 | 1015.8 |
| 20260505204003 | 58 | 262 | 1.0 | 4.0 | 0.00 | 0.00 | 0.00 | 63 | 1015.7 |
| 20260505203004 | 58 | 270 | 1.0 | 5.0 | 0.00 | 0.00 | 0.00 | 63 | 1016.0 |
| 20260505202505 | 58 | 281 | 1.0 | 5.0 | 0.00 | 0.00 | 0.00 | 64 | 1015.9 |
| 20260505201004 | 58 | 270 | 0.0 | 4.0 | 0.00 | 0.00 | 0.00 | 62 | 1016.0 |
| 20260505200503 | 58 | 242 | 0.0 | 4.0 | 0.00 | 0.00 | 0.00 | 62 | 1016.0 |
| 20260505200004 | 58 | 219 | 0.0 | 4.0 | 0.00 | 0.00 | 0.00 | 62 | 1015.7 |
| 20260505195504 | 58 | 208 | 0.0 | 4.0 | 0.00 | 0.00 | 0.00 | 62 | 1015.8 |
| 20260505194505 | 58 | 219 | 1.0 | 3.0 | 0.00 | 0.00 | 0.00 | 61 | 1015.8 |
| 20260505194003 | 58 | 220 | 2.0 | 4.0 | 0.00 | 0.00 | 0.00 | 60 | 1015.9 |
| 20260505193504 | 59 | 225 | 3.0 | 5.0 | 0.00 | 0.00 | 0.00 | 61 | 1015.8 |
| 20260505193004 | 59 | 225 | 3.0 | 5.0 | 0.00 | 0.00 | 0.00 | 61 | 1015.7 |
| 20260505192004 | 60 | 229 | 1.0 | 4.0 | 0.00 | 0.00 | 0.00 | 62 | 1015.7 |
| 20260505191504 | 60 | 232 | 1.0 | 4.0 | 0.00 | 0.00 | 0.00 | 62 | 1015.7 |
| 20260505191004 | 61 | 232 | 1.0 | 4.0 | 0.00 | 0.00 | 0.00 | 61 | 1015.7 |
| 20260505190504 | 61 | 262 | 1.0 | 4.0 | 0.00 | 0.00 | 0.00 | 60 | 1015.6 |
| 20260505185503 | 61 | 225 | 3.0 | 7.0 | 0.00 | 0.00 | 0.00 | 58 | 1015.8 |
| 20260505185003 | 62 | 225 | 2.0 | 7.0 | 0.00 | 0.00 | 0.00 | 58 | 1015.5 |
| 20260505184503 | 62 | 225 | 0.0 | 6.0 | 0.00 | 0.00 | 0.00 | 59 | 1015.5 |
| 20260505183004 | 63 | 355 | 0.0 | 2.0 | 0.00 | 0.00 | 0.00 | 55 | 1015.5 |
| 20260505182004 | 64 | 218 | 0.0 | 3.0 | 0.00 | 0.00 | 0.00 | 52 | 1015.4 |
| 20260505181504 | 64 | 332 | 0.0 | 4.0 | 0.00 | 0.00 | 0.00 | 53 | 1015.2 |
| 20260505181003 | 65 | 353 | 1.0 | 4.0 | 0.00 | 0.00 | 0.00 | 51 | 1015.3 |
| 20260505180503 | 65 | 15 | 1.0 | 4.0 | 0.00 | 0.00 | 0.00 | 48 | 1015.1 |
| 20260505180004 | 66 | 49 | 1.0 | 4.0 | 0.00 | 0.00 | 0.00 | 46 | 1015.2 |
| 20260505175504 | 67 | 147 | 0.0 | 2.0 | 0.00 | 0.00 | 0.00 | 45 | 1015.1 |
| 20260505175003 | 67 | 282 | 1.0 | 3.0 | 0.00 | 0.00 | 0.00 | 42 | 1014.8 |
| 20260505174003 | 68 | 157 | 0.0 | 4.0 | 0.00 | 0.00 | 0.00 | 42 | 1014.9 |
| 20260505173004 | 69 | 82 | 0.0 | 3.0 | 0.00 | 0.00 | 0.00 | 39 | 1015.0 |
| 20260505171503 | 71 | 29 | 1.0 | 4.0 | 0.00 | 0.00 | 0.00 | 30 | 1014.9 |
| 20260505171004 | 72 | 45 | 0.0 | 3.0 | 0.00 | 0.00 | 0.00 | 27 | 1014.7 |
| 20260505165503 | 73 | 63 | 2.0 | 5.0 | 0.00 | 0.00 | 0.00 | 21 | 1014.7 |
| 20260505163503 | 74 | 48 | 2.0 | 4.0 | 0.00 | 0.00 | 0.00 | 16 | 1014.9 |
| 20260505163004 | 74 | 44 | 2.0 | 5.0 | 0.00 | 0.00 | 0.00 | 15 | 1015.0 |
| 20260505162504 | 75 | 37 | 3.0 | 6.0 | 0.00 | 0.00 | 0.00 | 15 | 1015.0 |
| 20260505162003 | 75 | 44 | 4.0 | 9.0 | 0.00 | 0.00 | 0.00 | 15 | 1014.8 |
| 20260505161504 | 76 | 28 | 4.0 | 10.0 | 0.00 | 0.00 | 0.00 | 14 | 1014.9 |
| 20260505161004 | 76 | 355 | 3.0 | 10.0 | 0.00 | 0.00 | 0.00 | 14 | 1014.8 |
| 20260505160503 | 76 | 352 | 2.0 | 5.0 | 0.00 | 0.00 | 0.00 | 12 | 1014.7 |
| 20260505153004 | 77 | 359 | 4.0 | 10.0 | 0.00 | 0.00 | 0.00 | 14 | 1015.1 |
| 20260505152504 | 77 | 18 | 5.0 | 13.0 | 0.00 | 0.00 | 0.00 | 14 | 1014.8 |
| 20260505152003 | 78 | 30 | 5.0 | 13.0 | 0.00 | 0.00 | 0.00 | 12 | 1014.7 |
| 20260505151504 | 78 | 12 | 5.0 | 11.0 | 0.00 | 0.00 | 0.00 | 12 | 1015.0 |
| 20260505151004 | 78 | 12 | 4.0 | 11.0 | 0.00 | 0.00 | 0.00 | 13 | 1015.0 |
| 20260505125003 | 80 | 327 | 7.0 | 14.0 | 0.00 | 0.00 | 0.00 | 12 | 1015.6 |
| 20260505124504 | 80 | 326 | 7.0 | 19.0 | 0.00 | 0.00 | 0.00 | 12 | 1015.5 |
| 20260505124004 | 81 | 315 | 5.0 | 19.0 | 0.00 | 0.00 | 0.00 | 12 | 1015.7 |
| 20260505123004 | 81 | 293 | 5.0 | 14.0 | 0.00 | 0.00 | 0.00 | 12 | 1015.6 |
| 20260505122003 | 81 | 303 | 5.0 | 14.0 | 0.00 | 0.00 | 0.00 | 11 | 1015.7 |
| 20260505121504 | 82 | 306 | 3.0 | 13.0 | 0.00 | 0.00 | 0.00 | 13 | 1016.0 |
| 20260505120504 | 81 | 291 | 5.0 | 11.0 | 0.00 | 0.00 | 0.00 | 12 | 1015.9 |
| 20260505120005 | 81 | 284 | 3.0 | 8.0 | 0.00 | 0.00 | 0.00 | 13 | 1016.0 |
| 20260505115503 | 81 | 265 | 3.0 | 11.0 | 0.00 | 0.00 | 0.00 | 14 | 1015.9 |
| 20260505115004 | 80 | 269 | 4.0 | 11.0 | 0.00 | 0.00 | 0.00 | 12 | 1016.0 |
| 20260505114003 | 79 | 33 | 4.0 | 13.0 | 0.00 | 0.00 | 0.00 | 15 | 1016.0 |
| 20260505113504 | 79 | 11 | 3.0 | 9.0 | 0.00 | 0.00 | 0.00 | 15 | 1016.1 |
| 20260505112504 | 79 | 350 | 6.0 | 14.0 | 0.00 | 0.00 | 0.00 | 16 | 1016.2 |
| 20260505112003 | 80 | 357 | 4.0 | 14.0 | 0.00 | 0.00 | 0.00 | 15 | 1016.1 |
| 20260505111504 | 81 | 299 | 2.0 | 7.0 | 0.00 | 0.00 | 0.00 | 17 | 1016.1 |
| 20260505111004 | 80 | 260 | 2.0 | 7.0 | 0.00 | 0.00 | 0.00 | 19 | 1016.3 |
| 20260505110504 | 79 | 270 | 3.0 | 9.0 | 0.00 | 0.00 | 0.00 | 20 | 1016.2 |
| 20260505102004 | 77 | 123 | 4.0 | 11.0 | 0.00 | 0.00 | 0.00 | 24 | 1016.5 |
| 20260505101003 | 77 | 18 | 5.0 | 11.0 | 0.00 | 0.00 | 0.00 | 24 | 1016.5 |
| 20260505100504 | 76 | 27 | 5.0 | 8.0 | 0.00 | 0.00 | 0.00 | 27 | 1016.6 |
| 20260505100004 | 76 | 40 | 5.0 | 10.0 | 0.00 | 0.00 | 0.00 | 27 | 1016.5 |
| 20260505095503 | 76 | 29 | 5.0 | 10.0 | 0.00 | 0.00 | 0.00 | 27 | 1016.8 |
| 20260505094504 | 76 | 15 | 5.0 | 10.0 | 0.00 | 0.00 | 0.00 | 29 | 1016.9 |
| 20260505094004 | 75 | 19 | 4.0 | 11.0 | 0.00 | 0.00 | 0.00 | 30 | 1017.1 |
| 20260505093004 | 75 | 5 | 5.0 | 12.0 | 0.00 | 0.00 | 0.00 | 30 | 1016.9 |
| 20260505092004 | 74 | 29 | 5.0 | 12.0 | 0.00 | 0.00 | 0.00 | 32 | 1016.9 |
| 20260505091504 | 74 | 29 | 5.0 | 12.0 | 0.00 | 0.00 | 0.00 | 30 | 1017.1 |
| 20260505090503 | 74 | 359 | 4.0 | 11.0 | 0.00 | 0.00 | 0.00 | 31 | 1017.1 |
| 20260505090004 | 73 | 354 | 4.0 | 9.0 | 0.00 | 0.00 | 0.00 | 33 | 1017.1 |
| 20260505085503 | 73 | 7 | 5.0 | 10.0 | 0.00 | 0.00 | 0.00 | 34 | 1017.1 |
| 20260505085004 | 72 | 9 | 5.0 | 10.0 | 0.00 | 0.00 | 0.00 | 34 | 1017.0 |